Regional Weather Roundup
Issued by NWS

Home | Current Version | Previous Version | Graphics & Text | Print | Product List | Glossary On
Versions: 1 2 3 4 5 6 7 8 9 10 11 12 13 14 15 16 17 18 19 20 21 22 23 24 25 26 27 28 29 30 31 32 33 34 35 36 37 38 39 40 41 42 43 44 45 46 47 48 49 50
822
ASUS45 KTFX 230610
RWRMT
MONTANA REGIONAL WEATHER ROUNDUP
NATIONAL WEATHER SERVICE GREAT FALLS MT
1100 PM MST WED NOV 22 2017

NOTE: "FAIR" INDICATES FEW OR NO CLOUDS BELOW 12000 FEET WITH NO
SIGNIFICANT WEATHER AND/OR OBSTRUCTIONS TO VISIBILITY.

MTZ001>007-043-230700-
WEST OF THE DIVIDE

CITY           SKY/WX    TMP DP  RH WIND       PRES   REMARKS
KALISPELL      CLOUDY    45  45 100 SW5       30.02F
MISSOULA       FOG       37  37 100 W5        30.13F VSB 1/4
BUTTE          FAIR      41  33  73 S5        30.20F
MULLAN PASS    FOG       41  40  96 S8        30.10F VSB 1/4
ANACONDA         N/A     48  37  66 SE12      30.15F
DEER LODGE       N/A     48  39  71 S12G21    30.14F
EUREKA           N/A     54  48  82 MISG      29.96F
HAMILTON         N/A     52  41  66 S16       30.13F
LIBBY            N/A    N/A N/A N/A CALM      29.99F
PLAINS           N/A     43  40  89 CALM      30.07F VSB 0
RONAN            N/A     51  46  83 SE1       30.09F
$$

MTZ008-052>055-230700-
SOUTHWEST MONTANA

CITY           SKY/WX    TMP DP  RH WIND       PRES   REMARKS
BOZEMAN        FAIR      41  34  76 NE5       30.16F
DILLON         FAIR      41  34  76 SW13      30.21F
W YELLOWSTONE  CLOUDY    43  41  93 SW10      30.34F
ENNIS          CLOUDY    43  37  81 S20G31    30.26F
TWIN BRIDGES     N/A     42  32  68 CALM      30.16F
$$

MTZ009-010-012-014-046-048-049-054-230700-
EAST SLOPES AND CENTRAL MONTANA

CITY           SKY/WX    TMP DP  RH WIND       PRES   REMARKS
CUT BANK       FAIR      56  42  59 W32G46    29.88F
GREAT FALLS    FAIR      56  40  55 SW17      29.98F
MALMSTROM AFB  FAIR      54  41  62 S17       29.98F
HELENA         FAIR      42  38  85 W3        30.09S
BOWMANS CRNR   FAIR      52  40  63 S20G29    30.00F
CHOTEAU          N/A     61  39  44 SW16G25   29.96S
FAIRFIELD      FAIR      58  40  50 S14G22    29.95F
POWER          FAIR      56  41  57 S21       29.96F
RAYNESFORD     FAIR      54  40  59 SW8       30.02F
ULM            FAIR      55  41  59 S12       30.00F
$$

MTZ011-013-016-021-045-047-050-051-230700-
NORTH CENTRAL MONTANA

CITY           SKY/WX    TMP DP  RH WIND       PRES   REMARKS
HAVRE          FAIR      49  41  74 SW22      29.86F
LEWISTOWN      FAIR      56  40  55 SW23      30.04F
N BAR RANCH    FAIR      55  36  47 VRB6      30.04F
CHINOOK          N/A     57  43  58 SW14G21   29.84F
DENTON         FAIR      56  41  56 S16       29.97S
GEYSER         FAIR      56  40  54 SW21      30.01F
GRASS RANGE    MOCLDY    61  38  43 W30G39    29.94F
STANFORD       MOCLDY    56  38  52 SW7       30.04R
WINIFRED       FAIR      57  40  54 SW26G36   29.96F
$$

MTZ017>020-022>027-061-062-230700-
NORTHEAST MONTANA

CITY           SKY/WX    TMP DP  RH WIND       PRES   REMARKS
GLASGOW        FAIR      34  33  96 E8        29.88F WCI  27
GLENDIVE       FAIR      38  35  89 S6        29.94F
JORDAN           N/A     35  32  88 CALM      29.93F
SIDNEY         FAIR      25  24  96 S5        29.92F
WOLF POINT     FAIR      26  23  88 CALM      29.89F
MALTA          CLEAR     32  30  93 W5        29.85F
PLENTYWOOD       N/A     27  25  93 CALM      29.88F
POPLAR           N/A     28  27  93 CALM      29.90F
SCOBEY           N/A     27  18  69 S1        29.85F
$$

MTZ028>42-056>058-230700-
SOUTHCENTRAL AND SOUTHEAST MONTANA

CITY           SKY/WX    TMP DP  RH WIND       PRES   REMARKS
BAKER          FAIR      46  40  79 W7        29.98F
BILLINGS       CLOUDY    55  39  54 W16       30.07F
LIVINGSTON     FAIR      54  39  57 SW33G44   30.10F
MILES CITY     FAIR      46  40  79 SW12      29.98F
BIG TIMBER     CLEAR     52  37  58 W14G21    30.14S
FORSYTH          N/A     54  39  58 SW7       29.99F
HARLOWTON      MOCLDY    51  40  65 NW12      30.10F
LAUREL           N/A     54  39  58 SW17      30.07F
ROUNDUP          N/A     58  38  47 SW22      29.95F
$$

REGIONAL REPORTS...DAKOTAS

CITY           SKY/WX    TMP DP  RH WIND       PRES   REMARKS
WILLISTON      FAIR      24  22  91 SW3       29.91F
MINOT          FAIR      23  20  88 SW3       29.93F
DICKINSON      FAIR      29  27  92 S7        29.93F WCI  22
BEACH          FAIR      39  37  93 SW5       29.98F
CROSBY         FAIR      21  21 100 S9        29.89F WCI  11
TIOGA          FAIR      21  21 100 CALM      29.91F
WATFORD CITY   FAIR      25  25 100 CALM      29.92F
BISMARCK       FAIR      26  21  81 CALM      29.99S
GRAND FORKS    FAIR      19  16  88 NW6       29.95S WCI  11
FARGO          FAIR      23  16  74 N3        29.94S
BUFFALO SD       N/A     43  37  79 SW7       29.95F
RAPID CITY     FAIR      47  36  65 W6        30.07F
$$

REGIONAL REPORTS...WYOMING/IDAHO/WASHINGTON

CITY           SKY/WX    TMP DP  RH WIND       PRES   REMARKS
GILLETTE       FAIR      44  36  73 VRB6      30.13S
SHERIDAN       FAIR      47  36  65 SW5       30.11S
BUFFALO WY     FAIR      52  32  46 W6        30.16S
CODY           FAIR      57  37  47 W14G23    30.21F
YELLOWSTONE LA   N/A     38  37  97 CALM      30.40F
IDAHO FALLS    FOG       37  37 100 CALM      30.34F VSB 3/4
SALMON         CLOUDY    39  39 100 E5        30.28S FOG
BOISE          FAIR      48  47  96 CALM      30.19F FOG
SPOKANE        CLOUDY    53  50  89 S8        29.99F
$$

REGIONAL REPORTS...ALBERTA

CITY           SKY/WX    TMP DP  RH WIND       PRES   REMARKS
EDMONTON       CLEAR     21  16  79 NE8       29.52F WCI  12
CALGARY        PTCLDY    34  30  86 S5        29.65F
LETHBRIDGE     CLEAR     57  39  51 SW25G37   29.76F
MEDICINE HAT   CLEAR     50  41  71 SW21G28   29.74S
$$

REGIONAL REPORTS...SASKATCHEWAN

CITY           SKY/WX    TMP DP  RH WIND       PRES   REMARKS
SWIFT CURRENT  CLEAR     39  36  87 SW15      29.74F WCI  31
REGINA         CLOUDY    18  16  93 SE10      29.82F WCI   6
SASKATOON      CLOUDY    16  14  93 E6        29.79F FOG     WCI   7
$$




USA.gov is the U.S. government's official web portal to all federal, state and local government web resources and services.